Time,TemperatureF,DewpointF,PressureIn,WindDirection,WindDirectionDegrees,WindSpeedMPH,WindSpeedGustMPH,Humidity,HourlyPrecipIn,Conditions,Clouds,dailyrainin,SoftwareType,DateUTC
2013-01-30 00:03:00,22.8,18.7,30.21,SSW,198,0.0,0.0,84,0.00,,,0.00,Wunderground v.1.15,2013-01-30 07:03:00,
2013-01-30 00:09:00,22.8,18.7,30.20,SSW,198,0.0,0.0,84,0.00,,,0.00,Wunderground v.1.15,2013-01-30 07:09:00,
2013-01-30 00:15:00,22.9,18.8,30.20,SSW,198,0.0,0.0,84,0.00,,,0.00,Wunderground v.1.15,2013-01-30 07:15:00,
2013-01-30 00:20:00,23.0,19.2,30.20,SSW,198,0.0,0.0,85,0.00,,,0.00,Wunderground v.1.15,2013-01-30 07:20:00,
2013-01-30 00:26:00,23.0,19.2,30.19,SSW,198,0.0,1.0,85,0.00,,,0.00,Wunderground v.1.15,2013-01-30 07:26:00,
2013-01-30 00:31:00,23.1,19.0,30.19,SSW,198,0.0,0.0,84,0.00,,,0.00,Wunderground v.1.15,2013-01-30 07:31:00,
2013-01-30 00:37:00,23.1,19.0,30.19,SSW,198,0.0,0.0,84,0.00,,,0.00,Wunderground v.1.15,2013-01-30 07:37:00,
2013-01-30 00:43:00,23.2,19.1,30.19,SSW,198,0.0,0.0,84,0.00,,,0.00,Wunderground v.1.15,2013-01-30 07:43:00,
2013-01-30 00:49:00,23.2,19.1,30.19,SSW,198,0.0,0.0,84,0.00,,,0.00,Wunderground v.1.15,2013-01-30 07:49:00,
2013-01-30 00:55:00,23.3,19.2,30.19,SSW,198,0.0,0.0,84,0.00,,,0.00,Wunderground v.1.15,2013-01-30 07:55:00,
2013-01-30 01:01:00,23.3,19.2,30.19,SSW,198,0.0,0.0,84,0.00,,,0.00,Wunderground v.1.15,2013-01-30 08:01:00,
2013-01-30 01:07:00,23.4,19.3,30.19,SSW,198,0.0,0.0,84,0.00,,,0.00,Wunderground v.1.15,2013-01-30 08:07:00,
2013-01-30 01:12:00,23.4,19.3,30.19,SSW,198,0.0,0.0,84,0.00,,,0.00,Wunderground v.1.15,2013-01-30 08:12:00,
2013-01-30 01:18:00,23.4,19.6,30.19,SSW,198,0.0,0.0,85,0.00,,,0.00,Wunderground v.1.15,2013-01-30 08:18:00,
2013-01-30 01:24:00,23.5,19.7,30.18,SSW,198,0.0,0.0,85,0.00,,,0.00,Wunderground v.1.15,2013-01-30 08:24:00,
2013-01-30 01:30:00,23.5,19.7,30.18,SSW,198,0.0,0.0,85,0.00,,,0.00,Wunderground v.1.15,2013-01-30 08:30:00,
2013-01-30 01:35:00,23.6,20.0,30.18,SSW,198,0.0,0.0,86,0.00,,,0.00,Wunderground v.1.15,2013-01-30 08:35:00,
2013-01-30 01:41:00,23.6,19.8,30.18,SSW,198,0.0,0.0,85,0.00,,,0.00,Wunderground v.1.15,2013-01-30 08:41:00,
2013-01-30 01:47:00,23.7,20.1,30.17,SSW,198,0.0,0.0,86,0.00,,,0.00,Wunderground v.1.15,2013-01-30 08:47:00,
2013-01-30 01:53:00,23.7,19.9,30.17,SSW,198,0.0,0.0,85,0.00,,,0.00,Wunderground v.1.15,2013-01-30 08:53:00,
2013-01-30 01:59:00,23.7,19.9,30.17,SSW,198,0.0,0.0,85,0.00,,,0.00,Wunderground v.1.15,2013-01-30 08:59:00,
2013-01-30 02:05:00,23.6,19.8,30.17,SSW,198,0.0,0.0,85,0.00,,,0.00,Wunderground v.1.15,2013-01-30 09:05:00,
2013-01-30 02:10:00,23.6,19.8,30.16,SSW,198,0.0,0.0,85,0.00,,,0.00,Wunderground v.1.15,2013-01-30 09:10:00,
2013-01-30 02:16:00,23.7,19.9,30.15,SSW,198,0.0,0.0,85,0.00,,,0.00,Wunderground v.1.15,2013-01-30 09:16:00,
2013-01-30 02:22:00,23.7,19.9,30.16,SSW,198,0.0,0.0,85,0.00,,,0.00,Wunderground v.1.15,2013-01-30 09:22:00,
2013-01-30 02:28:00,23.7,20.1,30.16,SSW,198,0.0,0.0,86,0.00,,,0.00,Wunderground v.1.15,2013-01-30 09:28:00,
2013-01-30 02:34:00,23.7,20.1,30.16,SSW,198,0.0,0.0,86,0.00,,,0.00,Wunderground v.1.15,2013-01-30 09:34:00,
2013-01-30 02:40:00,23.6,19.8,30.16,SSW,198,0.0,0.0,85,0.00,,,0.00,Wunderground v.1.15,2013-01-30 09:40:00,
2013-01-30 02:46:00,23.6,19.8,30.16,SSW,198,0.0,0.0,85,0.00,,,0.00,Wunderground v.1.15,2013-01-30 09:46:00,
2013-01-30 02:51:00,23.6,19.8,30.16,SSW,198,0.0,0.0,85,0.00,,,0.00,Wunderground v.1.15,2013-01-30 09:51:00,
2013-01-30 02:57:00,23.6,20.0,30.16,SSW,198,0.0,0.0,86,0.00,,,0.00,Wunderground v.1.15,2013-01-30 09:57:00,
2013-01-30 03:03:00,23.7,20.1,30.16,SSW,198,0.0,0.0,86,0.00,,,0.00,Wunderground v.1.15,2013-01-30 10:03:00,
2013-01-30 03:09:00,23.8,20.5,30.16,SSW,198,0.0,1.0,87,0.00,,,0.00,Wunderground v.1.15,2013-01-30 10:09:00,
2013-01-30 03:15:00,23.8,20.5,30.17,SSW,198,0.0,0.0,87,0.00,,,0.00,Wunderground v.1.15,2013-01-30 10:15:00,
2013-01-30 03:21:00,23.9,20.6,30.16,SSW,198,0.0,0.0,87,0.00,,,0.00,Wunderground v.1.15,2013-01-30 10:21:00,
2013-01-30 03:27:00,23.9,20.6,30.16,SSW,198,0.0,0.0,87,0.00,,,0.00,Wunderground v.1.15,2013-01-30 10:27:00,
2013-01-30 03:33:00,24.0,20.7,30.17,SSW,198,0.0,0.0,87,0.00,,,0.00,Wunderground v.1.15,2013-01-30 10:33:00,
2013-01-30 03:38:00,24.0,20.7,30.16,SSW,198,0.0,0.0,87,0.00,,,0.00,Wunderground v.1.15,2013-01-30 10:38:00,
2013-01-30 03:43:00,24.1,20.8,30.16,SSW,198,0.0,0.0,87,0.00,,,0.00,Wunderground v.1.15,2013-01-30 10:43:00,
2013-01-30 03:49:00,24.2,20.9,30.16,SSW,198,0.0,0.0,87,0.00,,,0.00,Wunderground v.1.15,2013-01-30 10:49:00,
2013-01-30 03:54:00,24.3,21.0,30.16,SSW,198,0.0,0.0,87,0.00,,,0.00,Wunderground v.1.15,2013-01-30 10:54:00,
2013-01-30 04:00:00,24.4,21.1,30.16,SSW,198,0.0,0.0,87,0.00,,,0.00,Wunderground v.1.15,2013-01-30 11:00:00,
2013-01-30 04:05:00,24.4,21.4,30.16,SSW,198,0.0,0.0,88,0.00,,,0.00,Wunderground v.1.15,2013-01-30 11:05:00,
2013-01-30 04:11:00,24.4,21.4,30.16,SSW,198,0.0,0.0,88,0.00,,,0.00,Wunderground v.1.15,2013-01-30 11:11:00,
2013-01-30 04:16:00,24.5,21.5,30.16,SSW,198,0.0,0.0,88,0.00,,,0.00,Wunderground v.1.15,2013-01-30 11:16:00,
2013-01-30 04:22:00,24.5,21.5,30.16,SSW,198,0.0,0.0,88,0.00,,,0.00,Wunderground v.1.15,2013-01-30 11:22:00,
2013-01-30 04:27:00,24.5,21.5,30.16,SSW,198,0.0,0.0,88,0.00,,,0.00,Wunderground v.1.15,2013-01-30 11:27:00,
2013-01-30 04:33:00,24.5,21.5,30.16,SSW,198,0.0,0.0,88,0.00,,,0.00,Wunderground v.1.15,2013-01-30 11:33:00,
2013-01-30 04:38:00,24.6,21.6,30.16,SSW,198,0.0,3.0,88,0.00,,,0.00,Wunderground v.1.15,2013-01-30 11:38:00,
2013-01-30 04:44:00,24.6,21.6,30.16,SSW,198,0.0,0.0,88,0.00,,,0.00,Wunderground v.1.15,2013-01-30 11:44:00,
2013-01-30 04:49:00,24.6,21.6,30.16,SSW,198,0.0,0.0,88,0.00,,,0.00,Wunderground v.1.15,2013-01-30 11:49:00,
2013-01-30 04:55:00,24.6,21.6,30.16,SSW,198,0.0,2.0,88,0.00,,,0.00,Wunderground v.1.15,2013-01-30 11:55:00,
2013-01-30 05:01:00,24.6,21.6,30.15,SSW,198,0.0,0.0,88,0.00,,,0.00,Wunderground v.1.15,2013-01-30 12:01:00,
2013-01-30 05:07:00,24.7,21.7,30.15,SSW,198,0.0,0.0,88,0.00,,,0.00,Wunderground v.1.15,2013-01-30 12:07:00,
2013-01-30 05:13:00,24.7,21.7,30.15,SSW,198,0.0,0.0,88,0.00,,,0.00,Wunderground v.1.15,2013-01-30 12:13:00,
2013-01-30 05:18:00,24.7,21.7,30.15,SSW,198,0.0,1.0,88,0.00,,,0.00,Wunderground v.1.15,2013-01-30 12:18:00,
2013-01-30 05:24:00,24.7,21.7,30.15,SSW,198,0.0,0.0,88,0.00,,,0.00,Wunderground v.1.15,2013-01-30 12:24:00,
2013-01-30 05:30:00,24.6,21.3,30.15,WNW,282,0.0,2.0,87,0.00,,,0.00,Wunderground v.1.15,2013-01-30 12:30:00,
2013-01-30 05:38:00,24.6,21.3,30.15,WNW,288,0.0,2.0,87,0.00,,,0.00,Wunderground v.1.15,2013-01-30 12:38:00,
2013-01-30 05:43:00,24.6,21.6,30.15,WNW,288,0.0,0.0,88,0.00,,,0.00,Wunderground v.1.15,2013-01-30 12:43:00,
2013-01-30 05:49:00,24.6,21.6,30.15,WNW,288,0.0,0.0,88,0.00,,,0.00,Wunderground v.1.15,2013-01-30 12:49:00,
2013-01-30 05:55:00,24.6,21.6,30.15,WNW,288,0.0,0.0,88,0.00,,,0.00,Wunderground v.1.15,2013-01-30 12:55:00,
2013-01-30 06:01:00,24.7,21.7,30.14,WNW,288,0.0,0.0,88,0.00,,,0.00,Wunderground v.1.15,2013-01-30 13:01:00,
2013-01-30 06:07:00,24.8,21.8,30.15,WNW,288,0.0,0.0,88,0.00,,,0.00,Wunderground v.1.15,2013-01-30 13:07:00,
2013-01-30 06:12:00,24.9,22.1,30.15,WNW,288,0.0,0.0,89,0.00,,,0.00,Wunderground v.1.15,2013-01-30 13:12:00,
2013-01-30 06:18:00,24.9,22.1,30.15,WNW,288,0.0,0.0,89,0.00,,,0.00,Wunderground v.1.15,2013-01-30 13:18:00,
2013-01-30 06:24:00,24.9,22.1,30.15,WNW,288,0.0,0.0,89,0.00,,,0.00,Wunderground v.1.15,2013-01-30 13:24:00,
2013-01-30 06:29:00,25.1,22.3,30.15,WNW,288,0.0,0.0,89,0.00,,,0.00,Wunderground v.1.15,2013-01-30 13:29:00,
2013-01-30 06:34:00,25.1,22.3,30.15,WNW,288,0.0,0.0,89,0.00,,,0.00,Wunderground v.1.15,2013-01-30 13:34:00,
2013-01-30 06:40:00,25.2,22.4,30.15,WNW,288,0.0,0.0,89,0.00,,,0.00,Wunderground v.1.15,2013-01-30 13:40:00,
2013-01-30 06:46:00,25.3,22.5,30.15,WNW,288,0.0,0.0,89,0.00,,,0.00,Wunderground v.1.15,2013-01-30 13:46:00,
2013-01-30 06:52:00,25.4,22.6,30.15,WNW,288,0.0,0.0,89,0.00,,,0.00,Wunderground v.1.15,2013-01-30 13:52:00,
2013-01-30 06:58:00,25.4,22.6,30.14,WNW,288,0.0,0.0,89,0.00,,,0.00,Wunderground v.1.15,2013-01-30 13:58:00,
2013-01-30 07:04:00,25.4,22.6,30.14,WNW,288,0.0,1.0,89,0.00,,,0.00,Wunderground v.1.15,2013-01-30 14:04:00,
2013-01-30 07:10:00,25.4,22.6,30.14,WNW,288,0.0,0.0,89,0.00,,,0.00,Wunderground v.1.15,2013-01-30 14:10:00,
2013-01-30 07:16:00,25.5,22.7,30.15,WNW,288,0.0,1.0,89,0.00,,,0.00,Wunderground v.1.15,2013-01-30 14:16:00,
2013-01-30 07:22:00,25.5,22.7,30.15,WNW,288,0.0,1.0,89,0.00,,,0.00,Wunderground v.1.15,2013-01-30 14:22:00,
2013-01-30 07:27:00,25.6,22.8,30.15,WNW,288,0.0,1.0,89,0.00,,,0.00,Wunderground v.1.15,2013-01-30 14:27:00,
2013-01-30 07:33:00,25.6,22.8,30.15,WNW,288,0.0,1.0,89,0.00,,,0.00,Wunderground v.1.15,2013-01-30 14:33:00,
2013-01-30 07:39:00,25.6,22.8,30.15,WNW,288,0.0,1.0,89,0.00,,,0.00,Wunderground v.1.15,2013-01-30 14:39:00,
2013-01-30 07:44:00,25.6,22.8,30.14,WNW,288,0.0,0.0,89,0.00,,,0.00,Wunderground v.1.15,2013-01-30 14:44:00,
2013-01-30 07:50:00,25.6,22.8,30.14,WNW,288,0.0,0.0,89,0.00,,,0.00,Wunderground v.1.15,2013-01-30 14:50:00,
2013-01-30 07:56:00,25.7,23.2,30.14,WNW,288,0.0,0.0,90,0.00,,,0.00,Wunderground v.1.15,2013-01-30 14:56:00,
2013-01-30 08:02:00,25.8,23.3,30.14,WNW,288,0.0,0.0,90,0.00,,,0.00,Wunderground v.1.15,2013-01-30 15:02:00,
2013-01-30 08:08:00,25.8,23.3,30.14,WNW,288,0.0,0.0,90,0.00,,,0.00,Wunderground v.1.15,2013-01-30 15:08:00,
2013-01-30 08:13:00,25.8,23.3,30.14,WNW,288,0.0,1.0,90,0.00,,,0.00,Wunderground v.1.15,2013-01-30 15:13:00,
2013-01-30 08:19:00,25.9,23.4,30.14,WNW,288,0.0,1.0,90,0.00,,,0.00,Wunderground v.1.15,2013-01-30 15:19:00,
2013-01-30 08:25:00,25.9,23.4,30.14,WNW,288,0.0,0.0,90,0.00,,,0.00,Wunderground v.1.15,2013-01-30 15:25:00,
2013-01-30 08:30:00,26.0,23.5,30.14,WNW,288,0.0,0.0,90,0.00,,,0.00,Wunderground v.1.15,2013-01-30 15:30:00,
2013-01-30 08:36:00,26.2,23.7,30.14,WNW,288,0.0,0.0,90,0.00,,,0.00,Wunderground v.1.15,2013-01-30 15:36:00,
2013-01-30 08:42:00,26.3,24.0,30.14,WNW,288,0.0,1.0,91,0.00,,,0.00,Wunderground v.1.15,2013-01-30 15:42:00,
2013-01-30 08:48:00,26.5,24.2,30.14,WNW,288,0.0,1.0,91,0.00,,,0.00,Wunderground v.1.15,2013-01-30 15:48:00,
2013-01-30 08:54:00,26.6,24.3,30.14,WNW,288,0.0,0.0,91,0.00,,,0.00,Wunderground v.1.15,2013-01-30 15:54:00,
2013-01-30 09:00:00,26.7,24.2,30.14,WNW,288,0.0,0.0,90,0.00,,,0.00,Wunderground v.1.15,2013-01-30 16:00:00,
2013-01-30 09:05:00,26.7,24.2,30.14,WNW,288,0.0,0.0,90,0.00,,,0.00,Wunderground v.1.15,2013-01-30 16:05:00,
2013-01-30 09:11:00,26.8,24.3,30.13,WNW,288,0.0,0.0,90,0.00,,,0.00,Wunderground v.1.15,2013-01-30 16:11:00,
2013-01-30 09:17:00,26.9,24.4,30.13,WNW,288,0.0,0.0,90,0.00,,,0.00,Wunderground v.1.15,2013-01-30 16:17:00,
2013-01-30 09:23:00,26.9,24.4,30.14,WNW,288,0.0,0.0,90,0.00,,,0.00,Wunderground v.1.15,2013-01-30 16:23:00,
2013-01-30 09:29:00,27.0,24.5,30.14,WNW,288,0.0,0.0,90,0.00,,,0.00,Wunderground v.1.15,2013-01-30 16:29:00,
2013-01-30 09:34:00,27.0,24.5,30.14,WNW,288,0.0,0.0,90,0.00,,,0.00,Wunderground v.1.15,2013-01-30 16:34:00,
2013-01-30 09:40:00,27.1,24.6,30.14,WNW,288,0.0,0.0,90,0.00,,,0.00,Wunderground v.1.15,2013-01-30 16:40:00,
2013-01-30 09:46:00,27.3,25.0,30.14,WNW,288,0.0,0.0,91,0.00,,,0.00,Wunderground v.1.15,2013-01-30 16:46:00,
2013-01-30 09:52:00,27.4,24.9,30.14,WNW,288,0.0,0.0,90,0.00,,,0.00,Wunderground v.1.15,2013-01-30 16:52:00,
2013-01-30 09:57:00,27.5,25.2,30.14,WNW,288,0.0,1.0,91,0.00,,,0.00,Wunderground v.1.15,2013-01-30 16:57:00,
2013-01-30 22:16:00,32.9,29.2,30.20,West,279,0.0,0.0,86,0.00,,,0.00,Wunderground v.1.15,2013-01-31 05:16:00,
2013-01-30 22:18:00,33.0,29.3,30.20,West,279,0.0,0.0,86,0.00,,,0.00,Wunderground v.1.15,2013-01-31 05:18:00,
2013-01-30 22:20:00,33.0,29.3,30.20,West,279,0.0,0.0,86,0.00,,,0.00,Wunderground v.1.15,2013-01-31 05:20:00,
2013-01-30 22:21:00,33.0,29.3,30.20,West,279,0.0,0.0,86,0.00,,,0.00,Wunderground v.1.15,2013-01-31 05:21:00,
2013-01-30 22:27:00,33.0,29.3,30.20,West,279,0.0,0.0,86,0.00,,,0.00,Wunderground v.1.15,2013-01-31 05:27:00,
2013-01-30 22:32:00,33.0,29.3,30.20,West,279,0.0,1.0,86,0.00,,,0.00,Wunderground v.1.15,2013-01-31 05:32:00,
2013-01-30 22:37:00,33.0,29.3,30.20,West,279,0.0,0.0,86,0.00,,,0.00,Wunderground v.1.15,2013-01-31 05:37:00,
2013-01-30 22:42:00,32.9,29.2,30.21,West,279,0.0,1.0,86,0.00,,,0.00,Wunderground v.1.15,2013-01-31 05:42:00,
2013-01-30 22:48:00,32.9,29.2,30.20,West,279,0.0,1.0,86,0.00,,,0.00,Wunderground v.1.15,2013-01-31 05:48:00,
2013-01-30 22:54:00,32.8,29.1,30.21,West,279,0.0,1.0,86,0.00,,,0.00,Wunderground v.1.15,2013-01-31 05:54:00,
2013-01-30 23:00:00,32.9,29.2,30.21,West,279,0.0,0.0,86,0.00,,,0.00,Wunderground v.1.15,2013-01-31 06:00:00,
2013-01-30 23:06:00,32.9,29.2,30.21,West,279,0.0,0.0,86,0.00,,,0.00,Wunderground v.1.15,2013-01-31 06:06:00,
2013-01-30 23:11:00,32.9,29.2,30.20,West,279,0.0,0.0,86,0.00,,,0.00,Wunderground v.1.15,2013-01-31 06:11:00,
2013-01-30 23:17:00,32.9,29.2,30.21,West,279,0.0,0.0,86,0.00,,,0.00,Wunderground v.1.15,2013-01-31 06:17:00,
2013-01-30 23:22:00,32.9,29.2,30.20,West,279,0.0,0.0,86,0.00,,,0.00,Wunderground v.1.15,2013-01-31 06:22:00,
2013-01-30 23:28:00,33.0,29.3,30.21,West,279,0.0,0.0,86,0.00,,,0.00,Wunderground v.1.15,2013-01-31 06:28:00,
2013-01-30 23:34:00,33.1,29.7,30.21,West,279,0.0,0.0,87,0.00,,,0.00,Wunderground v.1.15,2013-01-31 06:34:00,
2013-01-30 23:39:00,33.1,29.4,30.21,West,279,0.0,0.0,86,0.00,,,0.00,Wunderground v.1.15,2013-01-31 06:39:00,
2013-01-30 23:44:00,33.0,29.3,30.21,West,279,0.0,0.0,86,0.00,,,0.00,Wunderground v.1.15,2013-01-31 06:44:00,
2013-01-30 23:50:00,33.0,29.3,30.21,West,279,0.0,0.0,86,0.00,,,0.00,Wunderground v.1.15,2013-01-31 06:50:00,
2013-01-30 23:56:00,33.0,29.3,30.21,West,279,0.0,0.0,86,0.00,,,0.00,Wunderground v.1.15,2013-01-31 06:56:00,